METAR Formatted Surface Weather Observation
Issued by NWS

Home | Current Version | Previous Version | Text Only | Print | Product List | Glossary On
Versions: 1 2 3 4 5 6 7 8 9 10 11 12 13 14 15 16 17 18 19 20 21 22 23 24 25 26 27 28 29 30 31
000
SAUS41 KAKQ 220354
MTRNUI
METAR KNUI 220353Z AUTO 17006KT 10SM BKN080 OVC095 14/10 A3003 RMK
AO2 SLP169 T01390100 $



USA.gov is the U.S. government's official web portal to all federal, state and local government web resources and services.